Time,TemperatureF,DewpointF,PressureIn,WindDirection,WindDirectionDegrees,WindSpeedMPH,WindSpeedGustMPH,Humidity,HourlyPrecipIn,Conditions,Clouds,dailyrainin,SolarRadiationWatts/m^2,SoftwareType,DateUTC
2013-03-07 00:03:00,47.8,29.6,30.19,SE,132,2.0,4.0,49,0.00,,---,0.00,0.00,VWS V14.00,2013-03-07 06:03:00,
2013-03-07 00:08:00,47.4,30.2,30.20,SE,132,1.0,4.0,51,0.00,,---,0.00,0.00,VWS V14.00,2013-03-07 06:08:00,
2013-03-07 00:15:00,47.3,28.1,30.20,SE,134,2.0,2.0,47,0.00,,---,0.00,0.00,VWS V14.00,2013-03-07 06:15:00,
2013-03-07 00:23:00,47.4,28.2,30.20,SE,134,2.0,2.0,47,0.00,,---,0.00,0.00,VWS V14.00,2013-03-07 06:23:00,
2013-03-07 00:32:00,45.8,30.6,30.20,SE,134,0.0,3.0,55,0.00,,---,0.00,0.00,VWS V14.00,2013-03-07 06:32:00,
2013-03-07 00:38:00,43.3,29.1,30.20,SE,134,0.0,3.0,57,0.00,,---,0.00,0.00,VWS V14.00,2013-03-07 06:38:00,
2013-03-07 00:44:00,42.8,32.2,30.20,SE,134,0.0,0.0,66,0.00,,---,0.00,0.00,VWS V14.00,2013-03-07 06:44:00,
2013-03-07 00:52:00,43.6,31.5,30.19,SE,134,3.0,3.0,62,0.00,,---,0.00,0.00,VWS V14.00,2013-03-07 06:52:00,
2013-03-07 01:00:00,45.3,31.4,30.19,SE,130,4.0,4.0,58,0.00,,---,0.00,0.00,VWS V14.00,2013-03-07 07:00:00,
2013-03-07 01:08:00,45.7,31.4,30.18,ESE,105,4.0,6.0,57,0.00,,---,0.00,0.00,VWS V14.00,2013-03-07 07:08:00,
2013-03-07 01:16:00,45.4,29.3,30.18,ESE,114,2.0,4.0,53,0.00,,---,0.00,0.00,VWS V14.00,2013-03-07 07:16:00,
2013-03-07 01:24:00,45.5,28.0,30.19,SE,125,0.0,4.0,50,0.00,,---,0.00,0.00,VWS V14.00,2013-03-07 07:24:00,
2013-03-07 01:33:00,45.4,28.4,30.19,SE,125,0.0,4.0,51,0.00,,---,0.00,0.00,VWS V14.00,2013-03-07 07:33:00,
2013-03-07 01:38:00,43.4,29.2,30.19,SE,125,2.0,4.0,57,0.00,,---,0.00,0.00,VWS V14.00,2013-03-07 07:38:00,
2013-03-07 01:45:00,44.8,32.6,30.19,SE,130,1.0,3.0,62,0.00,,---,0.00,0.00,VWS V14.00,2013-03-07 07:45:00,
2013-03-07 01:53:00,42.2,29.7,30.19,SE,130,0.0,3.0,61,0.00,,---,0.00,0.00,VWS V14.00,2013-03-07 07:53:00,
2013-03-07 02:01:00,41.2,29.6,30.19,SE,130,0.0,3.0,63,0.00,,---,0.00,0.00,VWS V14.00,2013-03-07 08:01:00,
2013-03-07 02:08:00,41.5,33.5,30.19,SE,130,0.0,3.0,73,0.00,,---,0.00,0.00,VWS V14.00,2013-03-07 08:08:00,
2013-03-07 02:13:00,41.2,34.2,30.19,SE,130,0.0,0.0,76,0.00,,---,0.00,0.00,VWS V14.00,2013-03-07 08:13:00,
2013-03-07 02:21:00,40.4,34.1,30.19,SE,130,0.0,0.0,78,0.00,,---,0.00,0.00,VWS V14.00,2013-03-07 08:21:00,
2013-03-07 02:30:00,39.3,31.7,30.19,SE,130,0.0,0.0,74,0.00,,---,0.00,0.00,VWS V14.00,2013-03-07 08:30:00,
2013-03-07 02:38:00,40.2,30.9,30.19,SE,130,0.0,0.0,69,0.00,,---,0.00,0.00,VWS V14.00,2013-03-07 08:38:00,
2013-03-07 02:46:00,40.0,29.9,30.19,SE,130,0.0,0.0,67,0.00,,---,0.00,0.00,VWS V14.00,2013-03-07 08:46:00,
2013-03-07 02:54:00,40.7,29.1,30.18,SE,130,0.0,0.0,63,0.00,,---,0.00,0.00,VWS V14.00,2013-03-07 08:54:00,
2013-03-07 03:02:00,40.7,29.1,30.18,SE,130,0.0,0.0,63,0.00,,---,0.00,0.00,VWS V14.00,2013-03-07 09:02:00,
2013-03-07 03:09:00,40.0,28.4,30.18,SE,130,0.0,0.0,63,0.00,,---,0.00,0.00,VWS V14.00,2013-03-07 09:09:00,
2013-03-07 03:14:00,40.0,28.4,30.18,SE,130,0.0,0.0,63,0.00,,---,0.00,0.00,VWS V14.00,2013-03-07 09:14:00,
2013-03-07 03:23:00,40.0,28.4,30.19,SE,130,0.0,0.0,63,0.00,,---,0.00,0.00,VWS V14.00,2013-03-07 09:23:00,
2013-03-07 03:31:00,39.8,28.6,30.19,SE,130,0.0,0.0,64,0.00,,---,0.00,0.00,VWS V14.00,2013-03-07 09:31:00,
2013-03-07 03:39:00,39.8,29.4,30.19,SE,130,0.0,0.0,66,0.00,,---,0.00,0.00,VWS V14.00,2013-03-07 09:39:00,
2013-03-07 03:51:00,41.6,33.9,30.19,SE,130,0.0,0.0,74,0.00,,---,0.00,0.00,VWS V14.00,2013-03-07 09:51:00,
2013-03-07 03:59:00,41.7,33.0,30.19,SE,129,0.0,1.0,71,0.00,,---,0.00,0.00,VWS V14.00,2013-03-07 09:59:00,
2013-03-07 04:08:00,41.8,30.5,30.20,SE,129,0.0,1.0,64,0.00,,---,0.00,0.00,VWS V14.00,2013-03-07 10:08:00,
2013-03-07 04:16:00,42.3,30.6,30.20,SE,129,0.0,1.0,63,0.00,,---,0.00,0.00,VWS V14.00,2013-03-07 10:16:00,
2013-03-07 04:24:00,42.4,30.7,30.20,SE,129,0.0,1.0,63,0.00,,---,0.00,0.00,VWS V14.00,2013-03-07 10:24:00,
2013-03-07 04:32:00,42.6,30.9,30.20,SE,129,0.0,1.0,63,0.00,,---,0.00,0.00,VWS V14.00,2013-03-07 10:32:00,
2013-03-07 04:38:00,41.9,32.5,30.20,SE,129,0.0,1.0,69,0.00,,---,0.00,0.00,VWS V14.00,2013-03-07 10:38:00,
2013-03-07 04:44:00,40.7,31.3,30.20,SE,129,0.0,0.0,69,0.00,,---,0.00,0.00,VWS V14.00,2013-03-07 10:44:00,
2013-03-07 04:52:00,40.5,30.8,30.21,SE,129,0.0,0.0,68,0.00,,---,0.00,0.00,VWS V14.00,2013-03-07 10:52:00,
2013-03-07 05:01:00,40.2,30.9,30.21,SE,129,0.0,0.0,69,0.00,,---,0.00,0.00,VWS V14.00,2013-03-07 11:01:00,
2013-03-07 05:09:00,41.0,31.6,30.20,SE,129,0.0,0.0,69,0.00,,---,0.00,0.00,VWS V14.00,2013-03-07 11:09:00,
2013-03-07 05:17:00,41.7,30.8,30.20,SE,129,1.0,2.0,65,0.00,,---,0.00,0.00,VWS V14.00,2013-03-07 11:17:00,
2013-03-07 05:25:00,42.0,29.9,30.21,SE,126,1.0,3.0,62,0.00,,---,0.00,0.00,VWS V14.00,2013-03-07 11:25:00,
2013-03-07 05:38:00,41.6,29.6,30.21,SE,128,0.0,3.0,62,0.00,,---,0.00,0.00,VWS V14.00,2013-03-07 11:38:00,
2013-03-07 05:46:00,41.5,30.2,30.21,ESE,121,3.0,4.0,64,0.00,,---,0.00,0.00,VWS V14.00,2013-03-07 11:46:00,
2013-03-07 05:54:00,42.0,30.3,30.21,ESE,122,3.0,9.0,63,0.00,,---,0.00,0.00,VWS V14.00,2013-03-07 11:54:00,
2013-03-07 06:02:00,42.2,30.5,30.21,SE,132,3.0,9.0,63,0.00,,---,0.00,0.00,VWS V14.00,2013-03-07 12:02:00,
2013-03-07 06:10:00,42.1,30.4,30.22,ESE,113,3.0,9.0,63,0.00,,---,0.00,0.00,VWS V14.00,2013-03-07 12:10:00,
2013-03-07 06:18:00,42.1,30.0,30.22,SE,130,4.0,9.0,62,0.00,,---,0.00,0.00,VWS V14.00,2013-03-07 12:18:00,
2013-03-07 06:27:00,41.9,29.9,30.23,SE,140,5.0,9.0,62,0.00,,---,0.00,0.00,VWS V14.00,2013-03-07 12:27:00,
2013-03-07 06:35:00,41.6,30.0,30.23,SE,128,5.0,9.0,63,0.00,,---,0.00,0.00,VWS V14.00,2013-03-07 12:35:00,
2013-03-07 06:43:00,41.6,30.0,30.23,SE,142,4.0,5.0,63,0.00,,---,0.00,0.00,VWS V14.00,2013-03-07 12:43:00,
2013-03-07 06:51:00,41.5,29.9,30.23,SE,129,5.0,6.0,63,0.00,,---,0.00,11.00,VWS V14.00,2013-03-07 12:51:00,
2013-03-07 06:59:00,41.7,30.8,30.23,SE,126,3.0,6.0,65,0.00,,---,0.00,19.00,VWS V14.00,2013-03-07 12:59:00,
2013-03-07 07:07:00,41.9,30.6,30.24,ESE,120,1.0,7.0,64,0.00,,---,0.00,37.00,VWS V14.00,2013-03-07 13:07:00,
2013-03-07 07:16:00,41.8,30.5,30.24,ESE,112,3.0,6.0,64,0.00,,---,0.00,39.00,VWS V14.00,2013-03-07 13:16:00,
2013-03-07 07:24:00,41.6,31.1,30.25,SE,128,4.0,6.0,66,0.00,,---,0.00,49.00,VWS V14.00,2013-03-07 13:24:00,
2013-03-07 07:32:00,41.5,31.0,30.25,ESE,111,4.0,6.0,66,0.00,,---,0.00,58.00,VWS V14.00,2013-03-07 13:32:00,
2013-03-07 07:39:00,41.5,31.4,30.26,ESE,117,3.0,6.0,67,0.00,,---,0.00,60.00,VWS V14.00,2013-03-07 13:39:00,
2013-03-07 07:44:00,41.7,31.9,30.26,ESE,117,5.0,6.0,68,0.00,,---,0.00,69.00,VWS V14.00,2013-03-07 13:44:00,
2013-03-07 07:52:00,42.0,32.2,30.26,ESE,111,5.0,6.0,68,0.00,,---,0.00,121.00,VWS V14.00,2013-03-07 13:52:00,
2013-03-07 08:01:00,42.4,32.6,30.26,ESE,120,4.0,10.0,68,0.00,,---,0.00,155.00,VWS V14.00,2013-03-07 14:01:00,
2013-03-07 08:09:00,42.8,32.6,30.26,ESE,113,3.0,10.0,67,0.00,,---,0.00,176.00,VWS V14.00,2013-03-07 14:09:00,
2013-03-07 08:17:00,43.2,32.6,30.26,ESE,102,6.0,10.0,66,0.00,,---,0.00,193.00,VWS V14.00,2013-03-07 14:17:00,
2013-03-07 08:25:00,43.9,34.0,30.26,ESE,113,4.0,10.0,68,0.00,,---,0.00,207.00,VWS V14.00,2013-03-07 14:25:00,
2013-03-07 08:33:00,44.3,34.0,30.26,SSE,148,4.0,11.0,67,0.00,,---,0.00,301.00,VWS V14.00,2013-03-07 14:33:00,
2013-03-07 08:39:00,45.1,34.8,30.27,SE,130,8.0,11.0,67,0.00,,---,0.00,325.00,VWS V14.00,2013-03-07 14:39:00,
2013-03-07 08:45:00,45.6,34.1,30.27,SE,126,6.0,7.0,64,0.00,,---,0.00,295.00,VWS V14.00,2013-03-07 14:45:00,
2013-03-07 08:53:00,46.5,35.0,30.27,SE,139,5.0,7.0,64,0.00,,---,0.00,323.00,VWS V14.00,2013-03-07 14:53:00,
2013-03-07 09:02:00,47.3,35.0,30.27,SE,130,5.0,9.0,62,0.00,,---,0.00,380.00,VWS V14.00,2013-03-07 15:02:00,
2013-03-07 09:10:00,48.6,34.9,30.27,SE,140,4.0,9.0,59,0.00,,---,0.00,446.00,VWS V14.00,2013-03-07 15:10:00,
2013-03-07 09:18:00,49.9,34.8,30.27,SSE,147,7.0,9.0,56,0.00,,---,0.00,459.00,VWS V14.00,2013-03-07 15:18:00,
2013-03-07 09:26:00,50.9,35.8,30.26,South,173,2.0,9.0,56,0.00,,---,0.00,526.00,VWS V14.00,2013-03-07 15:26:00,
2013-03-07 09:34:00,52.2,34.6,30.26,SE,136,6.0,12.0,51,0.00,,---,0.00,548.00,VWS V14.00,2013-03-07 15:34:00,
2013-03-07 09:43:00,53.2,35.1,30.26,SE,133,6.0,9.0,50,0.00,,---,0.00,571.00,VWS V14.00,2013-03-07 15:43:00,
2013-03-07 09:51:00,54.4,33.5,30.26,ESE,115,7.0,11.0,45,0.00,,---,0.00,592.00,VWS V14.00,2013-03-07 15:51:00,
2013-03-07 09:59:00,54.4,34.1,30.26,ESE,123,7.0,11.0,46,0.00,,---,0.00,619.00,VWS V14.00,2013-03-07 15:59:00,
2013-03-07 10:09:00,55.4,34.4,30.26,SSE,153,6.0,13.0,45,0.00,,---,0.00,635.00,VWS V14.00,2013-03-07 16:09:00,
2013-03-07 10:15:00,55.9,32.6,30.26,SSE,158,10.0,11.0,41,0.00,,---,0.00,642.00,VWS V14.00,2013-03-07 16:15:00,
2013-03-07 10:24:00,56.1,33.3,30.25,SE,144,7.0,13.0,42,0.00,,---,0.00,680.00,VWS V14.00,2013-03-07 16:24:00,
2013-03-07 10:32:00,56.6,33.2,30.25,SSE,151,12.0,13.0,41,0.00,,---,0.00,693.00,VWS V14.00,2013-03-07 16:32:00,
2013-03-07 10:39:00,56.7,33.3,30.25,SSE,168,4.0,13.0,41,0.00,,---,0.00,710.00,VWS V14.00,2013-03-07 16:39:00,
2013-03-07 10:48:00,57.1,34.8,30.25,South,169,5.0,11.0,43,0.00,,---,0.00,744.00,VWS V14.00,2013-03-07 16:48:00,
2013-03-07 10:56:00,57.8,34.3,30.25,SSE,161,10.0,13.0,41,0.00,,---,0.00,673.00,VWS V14.00,2013-03-07 16:56:00,
2013-03-07 11:04:00,57.5,34.6,30.25,SSE,153,6.0,13.0,42,0.00,,---,0.00,754.00,VWS V14.00,2013-03-07 17:04:00,
2013-03-07 11:12:00,58.3,36.5,30.25,South,190,7.0,10.0,44,0.00,,---,0.00,696.00,VWS V14.00,2013-03-07 17:12:00,
2013-03-07 11:20:00,58.7,35.7,30.25,South,171,11.0,13.0,42,0.00,,---,0.00,805.00,VWS V14.00,2013-03-07 17:20:00,
2013-03-07 11:29:00,59.1,35.4,30.25,SSE,155,11.0,13.0,41,0.00,,---,0.00,789.00,VWS V14.00,2013-03-07 17:29:00,
2013-03-07 11:37:00,59.2,36.1,30.24,SSE,153,6.0,14.0,42,0.00,,---,0.00,817.00,VWS V14.00,2013-03-07 17:37:00,
2013-03-07 11:45:00,60.5,34.8,30.24,SSE,153,6.0,13.0,38,0.00,,---,0.00,738.00,VWS V14.00,2013-03-07 17:45:00,
2013-03-07 11:53:00,61.4,35.6,30.24,ESE,120,10.0,16.0,38,0.00,,---,0.00,821.00,VWS V14.00,2013-03-07 17:53:00,
2013-03-07 12:01:00,61.6,35.1,30.24,SE,143,11.0,16.0,37,0.00,,---,0.00,817.00,VWS V14.00,2013-03-07 18:01:00,
2013-03-07 12:09:00,62.1,34.8,30.22,SSE,150,4.0,16.0,36,0.00,,---,0.00,826.00,VWS V14.00,2013-03-07 18:09:00,
2013-03-07 12:18:00,62.4,33.7,30.22,SE,128,5.0,16.0,34,0.00,,---,0.00,816.00,VWS V14.00,2013-03-07 18:18:00,
2013-03-07 12:26:00,63.2,34.4,30.22,SSE,155,11.0,16.0,34,0.00,,---,0.00,824.00,VWS V14.00,2013-03-07 18:26:00,
2013-03-07 12:34:00,63.2,33.6,30.22,South,184,13.0,16.0,33,0.00,,---,0.00,833.00,VWS V14.00,2013-03-07 18:34:00,
2013-03-07 12:42:00,63.5,33.9,30.21,SSE,160,8.0,14.0,33,0.00,,---,0.00,824.00,VWS V14.00,2013-03-07 18:42:00,
2013-03-07 12:50:00,64.0,35.1,30.21,SE,139,9.0,14.0,34,0.00,,---,0.00,812.00,VWS V14.00,2013-03-07 18:50:00,
2013-03-07 12:59:00,64.6,34.9,30.20,SE,126,5.0,14.0,33,0.00,,---,0.00,814.00,VWS V14.00,2013-03-07 18:59:00,
2013-03-07 13:09:00,65.0,32.8,30.19,SSE,147,10.0,14.0,30,0.00,,---,0.00,814.00,VWS V14.00,2013-03-07 19:09:00,
2013-03-07 13:15:00,65.3,33.1,30.19,South,190,11.0,11.0,30,0.00,,---,0.00,803.00,VWS V14.00,2013-03-07 19:15:00,
2013-03-07 13:23:00,65.4,34.0,30.18,SE,138,13.0,14.0,31,0.00,,---,0.00,798.00,VWS V14.00,2013-03-07 19:23:00,
2013-03-07 13:35:00,65.9,35.2,30.18,SSE,167,4.0,14.0,32,0.00,,---,0.00,777.00,VWS V14.00,2013-03-07 19:35:00,
2013-03-07 13:44:00,65.8,35.2,30.17,SSE,154,12.0,16.0,32,0.00,,---,0.00,770.00,VWS V14.00,2013-03-07 19:44:00,
2013-03-07 13:52:00,66.7,36.7,30.17,SE,130,7.0,16.0,33,0.00,,---,0.00,761.00,VWS V14.00,2013-03-07 19:52:00,
2013-03-07 14:00:00,66.2,33.0,30.16,ESE,118,9.0,16.0,29,0.00,,---,0.00,749.00,VWS V14.00,2013-03-07 20:00:00,
2013-03-07 14:08:00,66.5,32.4,30.16,SSE,148,7.0,16.0,28,0.00,,---,0.00,738.00,VWS V14.00,2013-03-07 20:08:00,
2013-03-07 14:16:00,66.3,32.2,30.16,SSE,149,9.0,12.0,28,0.00,,---,0.00,721.00,VWS V14.00,2013-03-07 20:16:00,
2013-03-07 14:24:00,66.8,33.5,30.15,South,173,11.0,14.0,29,0.00,,---,0.00,705.00,VWS V14.00,2013-03-07 20:24:00,
2013-03-07 14:32:00,66.8,36.0,30.15,South,173,4.0,14.0,32,0.00,,---,0.00,691.00,VWS V14.00,2013-03-07 20:32:00,
2013-03-07 14:38:00,66.7,34.3,30.15,South,190,6.0,14.0,30,0.00,,---,0.00,677.00,VWS V14.00,2013-03-07 20:38:00,
2013-03-07 14:45:00,67.0,32.8,30.15,South,169,9.0,12.0,28,0.00,,---,0.00,666.00,VWS V14.00,2013-03-07 20:45:00,
2013-03-07 14:53:00,66.8,31.8,30.15,SSE,149,7.0,13.0,27,0.00,,---,0.00,643.00,VWS V14.00,2013-03-07 20:53:00,
2013-03-07 15:01:00,67.2,33.9,30.15,SSE,163,7.0,13.0,29,0.00,,---,0.00,621.00,VWS V14.00,2013-03-07 21:01:00,
2013-03-07 15:09:00,67.6,36.7,30.14,SSE,151,6.0,13.0,32,0.00,,---,0.00,603.00,VWS V14.00,2013-03-07 21:09:00,
2013-03-07 15:17:00,67.6,33.4,30.14,SE,145,12.0,13.0,28,0.00,,---,0.00,573.00,VWS V14.00,2013-03-07 21:17:00,
2013-03-07 15:25:00,67.4,35.7,30.13,SSE,163,3.0,13.0,31,0.00,,---,0.00,554.00,VWS V14.00,2013-03-07 21:25:00,
2013-03-07 15:33:00,68.0,35.4,30.13,SSE,148,6.0,13.0,30,0.00,,---,0.00,526.00,VWS V14.00,2013-03-07 21:33:00,
2013-03-07 15:42:00,67.3,34.0,30.13,SSE,164,4.0,6.0,29,0.00,,---,0.00,501.00,VWS V14.00,2013-03-07 21:42:00,
2013-03-07 15:50:00,67.7,36.0,30.13,SSE,153,6.0,9.0,31,0.00,,---,0.00,471.00,VWS V14.00,2013-03-07 21:50:00,
2013-03-07 15:58:00,67.4,35.7,30.12,South,172,5.0,13.0,31,0.00,,---,0.00,448.00,VWS V14.00,2013-03-07 21:58:00,
2013-03-07 16:08:00,67.7,36.0,30.12,SE,129,5.0,13.0,31,0.00,,---,0.00,410.00,VWS V14.00,2013-03-07 22:08:00,
2013-03-07 16:14:00,67.3,32.2,30.12,SE,136,4.0,12.0,27,0.00,,---,0.00,366.00,VWS V14.00,2013-03-07 22:14:00,
2013-03-07 16:23:00,67.3,34.0,30.11,East,101,7.0,12.0,29,0.00,,---,0.00,367.00,VWS V14.00,2013-03-07 22:23:00,
2013-03-07 16:31:00,67.2,34.8,30.11,SSE,161,9.0,12.0,30,0.00,,---,0.00,332.00,VWS V14.00,2013-03-07 22:31:00,
2013-03-07 16:38:00,67.1,36.3,30.11,South,184,6.0,12.0,32,0.00,,---,0.00,309.00,VWS V14.00,2013-03-07 22:38:00,
2013-03-07 16:47:00,67.0,33.7,30.11,ESE,121,3.0,10.0,29,0.00,,---,0.00,241.00,VWS V14.00,2013-03-07 22:47:00,
2013-03-07 16:55:00,67.0,34.6,30.11,ESE,113,9.0,12.0,30,0.00,,---,0.00,236.00,VWS V14.00,2013-03-07 22:55:00,
2013-03-07 17:07:00,66.9,32.8,30.11,SE,126,6.0,12.0,28,0.00,,---,0.00,158.00,VWS V14.00,2013-03-07 23:07:00,
2013-03-07 17:16:00,66.4,34.0,30.11,ESE,117,10.0,10.0,30,0.00,,---,0.00,111.00,VWS V14.00,2013-03-07 23:16:00,
2013-03-07 17:24:00,66.7,35.1,30.11,SE,132,5.0,10.0,31,0.00,,---,0.00,62.00,VWS V14.00,2013-03-07 23:24:00,
2013-03-07 17:32:00,66.4,33.2,30.11,SE,143,12.0,13.0,29,0.00,,---,0.00,37.00,VWS V14.00,2013-03-07 23:32:00,
2013-03-07 17:38:00,66.4,34.0,30.11,SE,136,4.0,13.0,30,0.00,,---,0.00,30.00,VWS V14.00,2013-03-07 23:38:00,
2013-03-07 17:44:00,65.7,35.1,30.11,SE,131,5.0,12.0,32,0.00,,---,0.00,25.00,VWS V14.00,2013-03-07 23:44:00,
2013-03-07 17:52:00,65.5,35.7,30.11,SE,136,6.0,12.0,33,0.00,,---,0.00,23.00,VWS V14.00,2013-03-07 23:52:00,
2013-03-07 18:00:00,64.9,32.8,30.11,SE,127,3.0,12.0,30,0.00,,---,0.00,23.00,VWS V14.00,2013-03-08 00:00:00,
2013-03-07 18:09:00,64.7,34.2,30.12,SE,138,2.0,12.0,32,0.00,,---,0.00,18.00,VWS V14.00,2013-03-08 00:09:00,
2013-03-07 18:17:00,64.1,33.7,30.12,SE,130,3.0,6.0,32,0.00,,---,0.00,9.00,VWS V14.00,2013-03-08 00:17:00,
2013-03-07 18:25:00,63.7,34.8,30.11,ESE,120,5.0,6.0,34,0.00,,---,0.00,0.00,VWS V14.00,2013-03-08 00:25:00,
2013-03-07 18:33:00,63.2,35.8,30.11,SE,128,3.0,6.0,36,0.00,,---,0.00,0.00,VWS V14.00,2013-03-08 00:33:00,
2013-03-07 18:41:00,62.7,34.0,30.12,SE,130,3.0,3.0,34,0.00,,---,0.00,0.00,VWS V14.00,2013-03-08 00:41:00,
2013-03-07 18:49:00,62.5,33.8,30.12,ESE,115,2.0,5.0,34,0.00,,---,0.00,0.00,VWS V14.00,2013-03-08 00:49:00,
2013-03-07 18:58:00,62.2,34.2,30.12,ESE,113,4.0,5.0,35,0.00,,---,0.00,0.00,VWS V14.00,2013-03-08 00:58:00,
2013-03-07 19:06:00,61.7,35.2,30.12,ESE,123,3.0,5.0,37,0.00,,---,0.00,0.00,VWS V14.00,2013-03-08 01:06:00,
2013-03-07 19:14:00,61.4,36.2,30.13,SE,124,4.0,5.0,39,0.00,,---,0.00,0.00,VWS V14.00,2013-03-08 01:14:00,
2013-03-07 19:22:00,60.9,35.1,30.13,SE,128,3.0,5.0,38,0.00,,---,0.00,0.00,VWS V14.00,2013-03-08 01:22:00,
2013-03-07 19:30:00,60.5,35.4,30.13,SE,127,3.0,5.0,39,0.00,,---,0.00,0.00,VWS V14.00,2013-03-08 01:30:00,
2013-03-07 19:38:00,60.3,37.1,30.13,SE,138,3.0,6.0,42,0.00,,---,0.00,0.00,VWS V14.00,2013-03-08 01:38:00,
2013-03-07 19:47:00,59.9,37.4,30.13,SE,127,6.0,6.0,43,0.00,,---,0.00,0.00,VWS V14.00,2013-03-08 01:47:00,
2013-03-07 19:55:00,59.8,37.3,30.13,SE,124,2.0,6.0,43,0.00,,---,0.00,0.00,VWS V14.00,2013-03-08 01:55:00,
2013-03-07 20:03:00,59.5,37.0,30.13,ESE,122,2.0,6.0,43,0.00,,---,0.00,0.00,VWS V14.00,2013-03-08 02:03:00,
2013-03-07 20:11:00,59.2,37.9,30.14,SE,126,3.0,6.0,45,0.00,,---,0.00,0.00,VWS V14.00,2013-03-08 02:11:00,
2013-03-07 20:19:00,58.9,36.5,30.14,SE,129,2.0,6.0,43,0.00,,---,0.00,0.00,VWS V14.00,2013-03-08 02:19:00,
2013-03-07 20:27:00,58.6,36.8,30.14,SE,128,3.0,6.0,44,0.00,,---,0.00,0.00,VWS V14.00,2013-03-08 02:27:00,
2013-03-07 20:35:00,58.1,36.9,30.14,SE,126,2.0,6.0,45,0.00,,---,0.00,0.00,VWS V14.00,2013-03-08 02:35:00,
2013-03-07 20:44:00,57.7,37.6,30.14,ESE,118,2.0,4.0,47,0.00,,---,0.00,0.00,VWS V14.00,2013-03-08 02:44:00,
2013-03-07 20:52:00,57.5,37.5,30.14,ESE,120,2.0,4.0,47,0.00,,---,0.00,0.00,VWS V14.00,2013-03-08 02:52:00,
2013-03-07 21:00:00,57.2,37.2,30.14,SE,129,1.0,4.0,47,0.00,,---,0.00,0.00,VWS V14.00,2013-03-08 03:00:00,
2013-03-07 21:08:00,56.8,37.9,30.15,SE,130,0.0,4.0,49,0.00,,---,0.00,0.00,VWS V14.00,2013-03-08 03:08:00,
2013-03-07 21:16:00,56.4,37.5,30.15,SE,129,2.0,2.0,49,0.00,,---,0.00,0.00,VWS V14.00,2013-03-08 03:16:00,
2013-03-07 21:24:00,56.5,37.1,30.15,SE,136,2.0,4.0,48,0.00,,---,0.00,0.00,VWS V14.00,2013-03-08 03:24:00,
2013-03-07 21:33:00,56.3,36.9,30.15,SSE,150,2.0,4.0,48,0.00,,---,0.00,0.00,VWS V14.00,2013-03-08 03:33:00,
2013-03-07 21:38:00,56.3,36.9,30.16,SE,136,2.0,4.0,48,0.00,,---,0.00,0.00,VWS V14.00,2013-03-08 03:38:00,
2013-03-07 21:45:00,56.0,36.6,30.16,ESE,118,5.0,5.0,48,0.00,,---,0.00,0.00,VWS V14.00,2013-03-08 03:45:00,
2013-03-07 21:53:00,56.1,36.7,30.15,SE,129,4.0,5.0,48,0.00,,---,0.00,0.00,VWS V14.00,2013-03-08 03:53:00,
2013-03-07 22:01:00,56.1,36.2,30.15,SE,128,2.0,6.0,47,0.00,,---,0.00,0.00,VWS V14.00,2013-03-08 04:01:00,
2013-03-07 22:09:00,56.0,36.1,30.14,SE,134,4.0,6.0,47,0.00,,---,0.00,0.00,VWS V14.00,2013-03-08 04:09:00,
2013-03-07 22:18:00,55.9,36.0,30.14,SE,130,4.0,7.0,47,0.00,,---,0.00,0.00,VWS V14.00,2013-03-08 04:18:00,
2013-03-07 22:26:00,55.6,36.2,30.14,SE,126,5.0,7.0,48,0.00,,---,0.00,0.00,VWS V14.00,2013-03-08 04:26:00,
2013-03-07 22:34:00,55.3,36.0,30.14,SE,128,3.0,7.0,48,0.00,,---,0.00,0.00,VWS V14.00,2013-03-08 04:34:00,
2013-03-07 22:42:00,55.2,35.3,30.14,SE,136,4.0,5.0,47,0.00,,---,0.00,0.00,VWS V14.00,2013-03-08 04:42:00,
2013-03-07 22:50:00,55.0,36.2,30.14,SE,136,3.0,7.0,49,0.00,,---,0.00,0.00,VWS V14.00,2013-03-08 04:50:00,
2013-03-07 23:02:00,54.9,36.1,30.14,SE,132,4.0,7.0,49,0.00,,---,0.00,0.00,VWS V14.00,2013-03-08 05:02:00,
2013-03-07 23:08:00,54.9,35.6,30.14,SE,142,5.0,7.0,48,0.00,,---,0.00,0.00,VWS V14.00,2013-03-08 05:08:00,
2013-03-07 23:10:00,54.9,36.1,30.14,SE,138,3.0,4.0,49,0.00,,---,0.00,0.00,VWS V14.00,2013-03-08 05:10:00,
2013-03-07 23:15:00,54.8,36.5,30.14,SE,139,3.0,6.0,50,0.00,,---,0.00,0.00,VWS V14.00,2013-03-08 05:15:00,
2013-03-07 23:23:00,55.1,35.8,30.14,SE,138,4.0,6.0,48,0.00,,---,0.00,0.00,VWS V14.00,2013-03-08 05:23:00,
2013-03-07 23:31:00,55.3,36.0,30.14,SE,138,5.0,7.0,48,0.00,,---,0.00,0.00,VWS V14.00,2013-03-08 05:31:00,
2013-03-07 23:38:00,55.5,36.2,30.14,ESE,115,6.0,8.0,48,0.00,,---,0.00,0.00,VWS V14.00,2013-03-08 05:38:00,
2013-03-07 23:43:00,55.8,35.3,30.14,SE,142,7.0,7.0,46,0.00,,---,0.00,0.00,VWS V14.00,2013-03-08 05:43:00,
2013-03-07 23:51:00,56.0,36.1,30.14,SE,135,6.0,7.0,47,0.00,,---,0.00,0.00,VWS V14.00,2013-03-08 05:51:00,